Tracking 27371 objects as of 7-Jun-2023
HD Live streaming from Space Station
objects crossing your sky now

DELTA 1 DEB

Track DELTA 1 DEB now!
10-day predictions


NORAD ID: 9003
Int'l Code: 1975-004CM
Perigee: 617.5 km
Apogee: 653.8 km
Inclination: 98.2 °
Period: 97.3 minutes
Semi major axis: 7006 km
RCS: 0.043 m2 (small)
Launch date: January 22, 1975
Source: United States (US)
Launch site: AIR FORCE WESTERN TEST RANGE (AFWTR)

Note: This is SATELLITE DEBRIS
Your satellite tracking list
Your tracking list is empty




NASA's NSSDC Master Catalog

Two Line Element Set (TLE):
1  9003U 75004CM  23158.33392516  .00002676  00000-0  35693-3 0  9999
2  9003  98.1805 284.7443 0025908 228.4193 131.4798 14.80268212524693
Source of the keplerian elements: AFSPC